Regional Weather Roundup
Issued by NWS Northern Indiana

Home | Current Version | Previous Version | Graphics & Text | Print | Product List | Glossary On
Versions: 1 2 3 4 5 6 7 8 9 10 11 12 13 14 15 16 17 18 19 20 21 22 23 24 25 26 27 28 29 30 31 32 33 34 35 36 37 38 39 40 41 42 43 44 45 46 47 48 49 50
000
ASUS43 KIWX 161200
RWRIWX

KIWX WEATHER ROUNDUP
NATIONAL WEATHER SERVICE NORTHERN INDIANA
800 AM EDT TUE SEP 16 2014

NOTE: "FAIR" INDICATES FEW OR NO CLOUDS BELOW 12,000 FEET WITH NO
SIGNIFICANT WEATHER AND/OR OBSTRUCTIONS TO VISIBILITY.

* THESE STATIONS ARE NOT UNDER NWS QUALITY CONTROL. THEY ALSO MAY NOT
  REPORT WEATHER SUCH AS PRECIPITATION OR FOG.

INZ001>027-161300-
NORTHERN INDIANA

CITY           SKY/WX    TMP DP  RH WIND       PRES   REMARKS
GARY*          PTCLDY    50  46  87 W5        30.20R
VALPARAISO     CLOUDY    52  51  97 CALM      30.20R
6HR MIN TEMP:  50; 6HR MAX TEMP:  55;

KNOX*          CLOUDY    49  48  94 CALM      30.18S VSB 1/4
6HR MIN TEMP:  41; 6HR MAX TEMP:  89;

SOUTH BEND     FOG       45  43  93 CALM      30.20R VSB 1/4
6HR MIN TEMP:  44; 6HR MAX TEMP:  53;

GOSHEN         CLOUDY    50  48  93 N3        30.19R
6HR MIN TEMP:  45; 6HR MAX TEMP:  55;

WARSAW*        CLOUDY    48  48 100 CALM      30.20R FOG
ANGOLA*        MOCLDY    48  34  57 NE6       30.17S
FORT WAYNE     PTCLDY    49  47  93 CALM      30.19R
6HR MIN TEMP:  49; 6HR MAX TEMP:  53;

PERU/GRISSOM   CLOUDY    50  50 100 CALM      30.19R
6HR MIN TEMP:  50; 6HR MAX TEMP:  53;


$$
INZ028>050-161300-
CENTRAL INDIANA

CITY           SKY/WX    TMP DP  RH WIND       PRES   REMARKS
LAFAYETTE      FOG       50  50 100 CALM      30.21R VSB 1
6HR MIN TEMP:  49; 6HR MAX TEMP:  54;

KOKOMO*        CLOUDY    52  48  87 CALM      30.20R
6HR MIN TEMP:  52; 6HR MAX TEMP:  54;

MUNCIE*        CLOUDY    51  50  96 NE9       30.18R FOG
6HR MIN TEMP:  50; 6HR MAX TEMP:  56;

INDIANAPOLIS   CLOUDY    53  50  89 N8        30.18R FOG
6HR MIN TEMP:  53; 6HR MAX TEMP:  56;


$$
MIZ043>046-050>051-056>058-064>065-071>073-077>080-161300-
SOUTHWEST LOWER MICHIGAN

CITY           SKY/WX    TMP DP  RH WIND       PRES   REMARKS
BATTLE CREEK   FOG       47  46  97 CALM      30.19R VSB<1/4
6HR MIN TEMP:  47; 6HR MAX TEMP:  53;

BENTON HARBOR  FOG       41  41 100 CALM      30.19R VSB 3/4
6HR MIN TEMP:  41; 6HR MAX TEMP:  52;

COLDWATER*     CLOUDY    50  49  97 N6        30.17S FOG
6HR MIN TEMP:  50; 6HR MAX TEMP:  54;

HILLSDALE*     CLOUDY    51  51 100 N3        30.17R
HOLLAND        CLEAR     44  43  96 CALM      30.19R
6HR MIN TEMP:  42; 6HR MAX TEMP:  47;

GRAND RAPIDS   FOG       44  42  93 CALM      30.18R VSB 1/4
6HR MIN TEMP:  43; 6HR MAX TEMP:  50;

KALAMAZOO      CLEAR     45  43  93 CALM      30.19R
6HR MIN TEMP:  42; 6HR MAX TEMP:  52;

STURGIS*       PTCLDY    46  45  93 CALM      30.18R FOG
THREE RIVERS*  FOG       45  44  97 CALM      30.18S VSB 1

$$
OHZ001>008-015>018-024>025-161300-
NORTHWEST OHIO

CITY           SKY/WX    TMP DP  RH WIND       PRES   REMARKS
DEFIANCE       PTCLDY    51  48  89 CALM      30.19R FOG
6HR MIN TEMP:  49; 6HR MAX TEMP:  54;

FINDLAY        CLOUDY    55  51  86 N6        30.15S
6HR MIN TEMP:  51; 6HR MAX TEMP:  55;

TOLEDO EXPRESS PTCLDY    51  49  92 N5        30.16R
6HR MIN TEMP:  50; 6HR MAX TEMP:  53;

TOLEDO METCALF CLEAR     52  49  89 N3        30.17R
6HR MIN TEMP:  50; 6HR MAX TEMP:  54;

LIMA           CLOUDY    54  51  90 N6        30.16R FOG
6HR MIN TEMP:  50; 6HR MAX TEMP:  54;


$$
&&



USA.gov is the U.S. government's official web portal to all federal, state and local government web resources and services.